Wind_Speed
19 20 21 22 23 21 19 17 14 12 10 11 16 21 27 30 24 31 40 43 25 33 36 44 46 42 56 63 64 63 65 69 70 73 73 72 71 76 77 77 80 76 76 82
18 18 19 19 21 23 22 19 17 16 15 13 15 21 24 24 29 30 31 36 34 39 41 45 44 56 52 54 66 68 69 74 75 76 76 79 80 79 79 79 78 78 81 84
18 18 18 18 19 20 21 18 21 19 19 20 20 22 25 29 31 33 33 42 39 42 46 49 55 52 50 54 55 60 69 73 71 76 81 81 80 77 74 71 74 75 79 82
19 18 19 19 17 18 19 18 21 21 21 22 25 26 31 33 31 32 39 43 48 45 47 52 54 54 59 62 61 62 64 62 68 70 77 82 76 77 72 69 68 69 72 76
21 20 20 20 19 20 20 19 21 23 25 24 22 23 28 33 36 39 36 35 37 43 50 56 56 59 57 62 66 67 70 69 65 63 60 59 66 68 67 77 68 72 77 77
20 21 22 21 21 20 22 21 23 23 26 27 26 23 25 30 34 35 37 39 38 39 39 42 53 60 59 61 60 60 59 72 66 64 68 71 70 68 71 70 73 74 76 77
21 19 21 23 23 22 24 24 25 26 27 28 28 29 29 30 32 35 36 35 35 35 36 39 40 45 46 52 58 62 62 65 71 70 68 72 71 73 77 76 73 77 77 77
20 20 21 20 22 23 25 25 24 25 25 28 29 29 31 32 34 34 34 33 34 33 32 32 32 34 36 37 38 43 49 57 65 68 65 66 72 76 74 69 72 69 69 76
20 21 22 19 23 23 25 24 25 26 26 27 29 29 32 33 34 35 34 33 32 31 30 31 27 28 32 36 38 40 43 47 52 57 61 63 67 71 71 72 74 80 78 69
21 22 22 21 23 24 26 26 26 28 28 28 30 33 36 39 38 36 37 35 33 30 30 30 28 27 29 32 35 37 40 43 46 49 53 57 63 65 64 71 75 79 78 83
19 25 23 24 24 26 28 28 28 29 30 29 32 33 35 37 36 36 35 36 35 33 30 29 28 28 30 32 34 35 38 41 43 46 49 51 54 57 60 67 70 70 73 76
21 25 24 24 25 27 28 29 29 30 31 31 33 36 36 38 35 34 32 32 31 30 29 27 27 27 25 24 27 31 35 39 40 41 44 47 48 49 52 55 57 59 61 61
23 23 25 24 26 27 29 29 30 30 31 32 34 37 37 38 38 36 32 30 25 24 22 20 19 20 21 23 27 32 34 38 39 38 39 40 41 43 44 48 52 53 54 54
25 25 25 25 27 28 28 30 30 31 31 33 35 37 36 37 38 36 33 29 26 23 21 20 20 21 23 27 30 34 33 33 33 33 34 35 36 36 36 36 39 44 49 51
25 26 25 26 27 28 29 30 30 31 32 35 36 36 37 39 38 35 34 30 28 25 23 22 22 23 25 26 29 32 32 32 33 35 35 35 34 35 37 38 40 42 45 48
27 28 27 27 27 28 29 29 30 31 32 35 37 36 38 42 42 38 35 33 29 28 27 26 25 25 26 26 29 31 32 32 33 34 34 35 35 36 37 39 41 43 45 46
29 28 27 28 28 28 28 28 29 30 32 35 37 38 39 42 44 42 38 35 32 30 29 28 28 27 28 28 28 31 32 32 34 33 29 28 26 28 30 31 34 37 39 40
31 28 28 28 28 28 28 28 30 31 32 34 37 38 41 43 46 45 40 33 32 30 30 29 29 28 29 29 30 32 33 32 34 33 29 27 27 26 28 25 25 30 36 37
32 30 29 28 28 28 27 28 30 32 33 35 37 39 41 45 48 47 42 34 31 29 28 29 29 28 29 30 31 31 33 33 34 34 30 28 29 23 21 27 30 27 26 31
33 31 30 29 29 28 28 29 30 32 34 36 38 40 42 45 48 47 43 35 32 30 28 27 26 27 28 28 30 29 32 33 33 32 30 27 23 19 24 25 17 20 27 25
30 30 30 29 29 28 28 29 30 33 35 38 40 41 42 45 48 47 41 35 33 30 29 28 27 25 25 27 28 28 31 32 32 30 27 24 18 19 21 21 18 19 24 20
30 31 30 29 29 29 29 29 32 34 36 39 42 43 43 46 49 46 39 35 32 29 27 27 27 25 24 25 26 27 29 31 30 29 24 21 14 20 19 20 14 14 16 14
31 30 31 31 30 30 31 32 34 36 38 41 42 43 44 47 48 44 35 34 32 30 26 26 27 25 23 23 24 26 27 29 28 25 24 9 10 15 16 15 10 12 9 8
30 30 31 32 33 32 33 34 36 39 40 42 43 45 45 47 44 41 36 32 30 28 25 25 25 26 23 22 23 24 25 26 24 22 19 5 9 12 15 15 10 13 14 9
29 31 32 34 34 34 35 36 38 40 42 43 44 45 48 48 44 37 33 31 29 26 24 25 25 25 22 22 21 21 22 23 21 18 16 8 8 9 11 12 12 12 11 8
31 32 34 35 35 35 36 37 39 41 42 42 44 45 46 43 40 34 30 29 27 25 23 23 24 23 21 20 19 19 20 20 19 15 14 8 8 6 5 7 7 9 13 13
31 34 36 36 35 35 36 38 40 42 43 43 44 45 44 39 35 31 29 27 26 24 22 22 22 21 20 18 17 16 17 17 16 13 9 9 6 4 4 6 8 9 10 11
Wind_Direction
13 17 20 21 23 20 7 354 351 341 312 274 276 284 264 254 265 249 248 253 227 238 235 229 229 235 237 236 240 241 243 238 241 247 250 248 245 246 245 249 253 251 255 257
358 8 10 14 19 21 22 20 1 340 325 314 294 266 262 274 276 275 245 242 243 257 253 246 232 229 235 237 240 242 245 245 244 246 249 252 255 254 250 250 252 255 254 254
342 351 359 359 8 12 16 15 12 1 350 320 306 300 288 280 271 270 273 243 244 246 248 251 249 251 235 228 236 240 239 242 244 246 248 250 253 251 255 254 256 259 258 256
327 335 343 351 355 359 4 6 3 358 351 335 315 306 297 291 291 283 275 270 262 257 241 246 250 252 244 242 236 234 234 234 232 238 245 247 249 253 255 258 259 260 259 258
316 324 330 339 343 346 350 352 354 355 354 349 338 315 299 293 291 292 288 280 273 270 264 263 255 250 251 247 246 245 248 243 232 235 233 235 241 242 248 252 255 258 254 257
308 315 320 329 331 337 341 341 345 347 351 349 343 332 309 295 291 291 292 293 293 288 281 272 269 264 263 254 253 249 254 250 252 257 255 257 261 262 263 260 260 260 255 262
305 309 311 320 323 329 331 336 339 340 344 342 340 336 325 310 300 295 294 291 289 288 285 286 279 272 270 270 267 269 271 260 254 254 258 259 259 263 266 263 263 262 261 261
304 303 303 313 313 320 321 328 329 327 333 335 336 333 324 316 309 304 300 299 297 293 291 284 279 272 274 275 273 270 271 271 270 273 274 274 270 268 264 258 256 258 260 259
303 299 298 306 304 312 312 318 320 321 327 332 332 334 331 324 315 309 307 303 298 296 293 290 284 275 274 275 276 276 275 274 273 273 275 277 279 274 273 274 276 264 255 261
305 291 295 300 302 307 309 313 320 321 322 325 330 337 334 326 320 315 312 309 304 298 294 290 288 284 278 276 274 273 273 273 272 273 274 276 278 278 278 278 279 279 274 263
299 291 298 298 303 307 310 313 317 317 319 322 329 330 327 320 319 315 311 309 306 301 295 288 286 287 287 286 285 285 282 278 275 271 269 269 270 272 274 275 277 277 277 275
294 299 296 299 300 304 307 309 313 313 316 320 324 326 329 329 323 322 316 313 309 302 296 291 288 289 294 295 294 292 291 287 283 278 273 269 269 269 268 266 267 270 271 271
298 300 298 300 300 301 304 305 310 311 315 315 316 320 329 329 328 322 321 318 310 311 307 300 296 294 299 305 308 304 299 290 287 283 278 275 274 273 270 269 268 268 267 265
298 299 300 300 297 299 301 302 306 307 311 312 312 319 327 331 329 324 322 317 309 304 301 294 295 299 309 313 317 314 312 307 294 288 287 285 279 274 272 269 264 265 266 266
294 296 299 295 295 296 297 299 303 304 306 307 310 317 324 329 331 325 321 317 310 298 293 289 294 302 311 312 317 318 315 314 308 294 288 287 285 280 279 277 273 272 273 274
288 290 295 293 291 293 294 298 300 300 300 302 307 316 322 326 331 330 319 316 309 302 291 290 290 294 303 309 316 323 318 314 313 303 293 288 286 282 280 277 277 275 272 270
285 288 291 291 290 289 292 294 296 295 297 301 307 315 322 324 328 327 323 314 312 305 296 286 287 291 300 308 315 320 320 317 318 316 304 296 294 294 289 288 288 284 282 279
282 283 287 286 286 286 289 291 291 295 299 302 307 315 318 322 326 326 324 311 309 306 303 294 286 291 299 305 311 319 323 321 320 320 315 310 309 303 300 294 288 289 292 291
279 283 285 285 284 286 288 291 292 297 302 305 309 313 318 322 324 325 323 313 310 309 301 302 288 288 296 302 307 318 324 322 323 324 322 320 317 309 300 303 301 302 300 298
279 283 283 282 283 286 291 292 294 300 305 308 312 315 318 321 323 324 319 315 310 309 301 303 292 282 288 298 305 317 322 324 325 326 325 320 318 306 307 313 304 307 315 309
277 278 278 279 283 288 289 294 299 303 307 312 314 315 317 320 323 322 315 313 310 309 304 303 301 286 287 296 303 314 323 328 329 327 326 324 317 311 317 318 301 312 326 333
275 277 279 281 284 288 293 295 299 304 309 311 313 314 316 318 321 318 311 309 308 309 305 300 307 289 286 293 302 313 324 330 331 331 330 328 315 319 327 330 322 318 326 335
274 277 280 283 285 289 291 296 301 307 309 310 312 313 314 318 319 315 311 306 305 307 302 300 303 300 283 290 300 311 324 331 335 333 333 329 325 337 345 344 357 349 350 356
275 277 277 281 287 290 293 299 302 304 308 310 310 311 314 317 317 311 310 306 302 303 301 300 298 307 286 285 297 310 325 331 338 335 336 301 331 352 358 359 338 341 352 336
270 271 274 280 287 290 291 294 299 303 307 308 310 312 315 317 313 308 305 303 300 300 299 295 300 305 295 282 292 307 321 332 340 337 337 277 307 332 345 351 353 353 1 5
269 275 280 283 286 288 290 294 297 301 304 307 308 310 314 312 307 305 303 301 299 298 293 293 296 300 302 281 285 301 317 332 340 341 342 319 301 319 4 10 353 346 343 357
273 276 279 283 285 287 290 293 297 301 304 306 307 310 312 307 302 302 299 299 298 295 291 288 295 298 304 283 275 293 310 326 336 344 347 343 292 291 328 2 10 6 17 52
Height
5641 5636 5632 5628 5624 5620 5617 5615 5615 5614 5614 5615 5615 5614 5614 5613 5614 5614 5615 5616 5616 5619 5619 5623 5629 5634 5638 5641 5643 5647 5652 5657 5661 5663 5666 5670 5674 5679 5684 5689 5694 5697 5699 5701
5640 5636 5632 5628 5624 5620 5617 5615 5612 5611 5610 5609 5608 5608 5608 5608 5608 5609 5609 5609 5608 5610 5610 5610 5613 5620 5623 5627 5630 5633 5636 5639 5643 5646 5650 5653 5656 5660 5664 5669 5672 5675 5680 5684
5637 5634 5631 5628 5623 5620 5616 5614 5611 5609 5607 5603 5602 5600 5597 5597 5598 5599 5599 5600 5600 5601 5603 5602 5602 5604 5607 5612 5615 5617 5619 5623 5627 5630 5633 5636 5638 5641 5645 5648 5652 5656 5661 5664
5634 5632 5630 5627 5623 5619 5616 5612 5609 5606 5603 5600 5597 5593 5589 5588 5587 5587 5588 5589 5589 5591 5591 5592 5593 5594 5596 5596 5600 5603 5605 5607 5609 5613 5616 5619 5622 5625 5628 5630 5632 5636 5641 5644
5629 5628 5626 5623 5620 5617 5614 5611 5607 5604 5600 5596 5593 5591 5586 5582 5578 5576 5575 5576 5575 5575 5578 5578 5580 5581 5582 5584 5586 5587 5588 5591 5591 5594 5596 5599 5603 5607 5611 5616 5618 5620 5622 5624
5626 5624 5621 5619 5616 5613 5610 5607 5603 5601 5597 5593 5588 5585 5581 5577 5573 5570 5566 5562 5562 5561 5561 5563 5564 5567 5572 5570 5569 5573 5573 5575 5573 5574 5577 5581 5583 5587 5590 5595 5600 5602 5604 5605
5621 5620 5617 5614 5611 5609 5606 5606 5598 5595 5592 5587 5583 5578 5573 5569 5565 5562 5559 5557 5554 5551 5549 5548 5548 5551 5553 5554 5556 5555 5554 5557 5559 5559 5561 5564 5567 5570 5575 5578 5581 5583 5587 5589
5616 5615 5614 5611 5607 5606 5602 5598 5596 5592 5588 5583 5577 5571 5565 5560 5556 5553 5550 5547 5544 5542 5539 5537 5537 5537 5537 5537 5538 5539 5540 5541 5540 5539 5541 5544 5547 5550 5552 5556 5560 5564 5565 5569
5612 5609 5607 5606 5603 5602 5598 5596 5592 5588 5583 5579 5573 5567 5560 5555 5549 5544 5541 5538 5536 5533 5529 5526 5526 5527 5526 5525 5525 5524 5523 5522 5523 5525 5525 5524 5526 5529 5531 5533 5536 5542 5545 5550
5605 5602 5601 5600 5598 5596 5593 5590 5586 5581 5577 5573 5567 5560 5554 5548 5542 5536 5532 5528 5526 5524 5521 5517 5516 5516 5516 5516 5514 5513 5511 5509 5507 5506 5506 5506 5507 5508 5508 5510 5512 5516 5519 5524
5599 5595 5594 5592 5591 5588 5585 5582 5579 5575 5571 5567 5561 5555 5550 5543 5537 5530 5524 5520 5516 5513 5511 5509 5507 5506 5504 5503 5502 5499 5497 5495 5494 5492 5491 5491 5490 5489 5489 5490 5490 5492 5494 5498
5592 5589 5587 5586 5584 5581 5578 5575 5572 5568 5565 5560 5556 5550 5544 5537 5531 5525 5518 5513 5508 5504 5501 5499 5497 5496 5494 5493 5491 5488 5485 5481 5479 5477 5474 5474 5474 5474 5471 5472 5470 5471 5472 5473
5586 5583 5580 5579 5577 5574 5572 5568 5565 5561 5557 5554 5550 5545 5539 5532 5524 5518 5513 5507 5502 5499 5496 5493 5490 5488 5486 5483 5480 5476 5472 5469 5466 5463 5461 5459 5457 5456 5457 5452 5453 5454 5454 5454
5578 5575 5574 5572 5570 5568 5564 5561 5558 5554 5551 5548 5543 5538 5533 5527 5519 5512 5507 5502 5497 5494 5491 5489 5486 5483 5480 5476 5472 5466 5461 5456 5452 5449 5446 5444 5443 5442 5441 5441 5441 5439 5437 5438
5570 5567 5567 5564 5562 5560 5557 5554 5551 5547 5544 5541 5537 5532 5527 5521 5514 5507 5500 5495 5491 5487 5485 5483 5480 5477 5473 5470 5466 5460 5454 5448 5443 5439 5435 5433 5431 5429 5428 5427 5426 5425 5423 5421
5563 5560 5559 5557 5555 5553 5550 5547 5544 5541 5538 5534 5530 5525 5520 5513 5507 5501 5494 5489 5484 5480 5477 5475 5472 5470 5467 5463 5458 5453 5447 5441 5435 5429 5425 5421 5419 5416 5414 5412 5410 5409 5407 5406
5553 5553 5551 5549 5547 5545 5543 5540 5537 5534 5530 5526 5522 5517 5512 5506 5499 5493 5487 5481 5476 5472 5469 5467 5465 5462 5459 5455 5451 5446 5440 5434 5427 5420 5415 5412 5409 5406 5402 5400 5397 5395 5392 5390
5545 5544 5542 5541 5539 5537 5535 5533 5530 5526 5523 5519 5514 5509 5504 5498 5492 5486 5480 5474 5469 5465 5460 5458 5456 5454 5451 5447 5444 5438 5432 5426 5420 5413 5408 5404 5400 5396 5393 5389 5387 5384 5381 5377
5535 5534 5533 5532 5531 5529 5527 5525 5522 5518 5515 5511 5506 5501 5495 5489 5483 5476 5471 5465 5461 5458 5454 5450 5448 5446 5443 5440 5436 5431 5425 5419 5413 5406 5400 5396 5392 5388 5385 5382 5378 5374 5371 5366
5525 5525 5524 5523 5521 5520 5518 5516 5513 5510 5506 5502 5498 5492 5487 5482 5475 5468 5462 5457 5453 5449 5445 5443 5440 5438 5436 5433 5429 5424 5420 5413 5407 5400 5395 5390 5386 5382 5379 5375 5372 5369 5365 5358
5516 5515 5515 5514 5513 5512 5510 5507 5504 5500 5497 5492 5488 5484 5479 5473 5466 5460 5454 5450 5445 5441 5437 5434 5431 5430 5428 5426 5422 5418 5413 5407 5401 5394 5390 5385 5381 5378 5374 5370 5367 5363 5358 5353
5506 5505 5505 5505 5504 5502 5500 5498 5495 5491 5488 5484 5479 5475 5470 5464 5458 5451 5444 5441 5437 5433 5430 5427 5424 5422 5420 5419 5416 5412 5407 5402 5396 5389 5384 5380 5377 5374 5370 5366 5362 5359 5356 5353
5496 5496 5496 5495 5495 5493 5491 5488 5485 5482 5479 5475 5470 5466 5461 5455 5448 5443 5438 5432 5429 5425 5423 5420 5418 5415 5413 5412 5410 5407 5403 5398 5392 5386 5381 5377 5375 5372 5368 5364 5361 5359 5356 5353
5487 5487 5486 5486 5485 5484 5482 5479 5476 5473 5469 5464 5460 5455 5451 5447 5440 5432 5429 5425 5421 5419 5416 5413 5411 5409 5407 5406 5404 5401 5398 5394 5389 5383 5378 5376 5374 5371 5368 5365 5362 5360 5356 5353
5478 5478 5478 5477 5475 5474 5472 5470 5467 5463 5460 5455 5449 5444 5439 5434 5429 5425 5421 5417 5414 5412 5409 5407 5405 5403 5400 5399 5399 5396 5394 5391 5386 5381 5377 5375 5374 5371 5369 5366 5363 5360 5357 5354
5469 5469 5468 5467 5466 5464 5462 5460 5457 5454 5451 5446 5440 5436 5430 5425 5419 5416 5413 5410 5407 5405 5403 5401 5399 5397 5395 5394 5394 5392 5390 5387 5384 5380 5376 5374 5373 5371 5369 5367 5364 5361 5358 5354
5460 5460 5458 5457 5456 5454 5452 5450 5447 5443 5439 5436 5432 5425 5421 5416 5411 5408 5405 5402 5400 5398 5396 5395 5394 5392 5390 5388 5388 5388 5386 5384 5382 5379 5376 5374 5372 5371 5370 5368 5366 5363 5360 5357